| time (UTC) | temp F | wind direction | speed MPH | gust MPH | rain 1hr in | rain 24hr in | rain mn in | humidity % | barometer mb |
| 20260901213003 | 79 | 0 | 1.0 | 0.0 | 0.00 | 0.00 | 0.00 | 22 | 1019.0 |
| 20260901210004 | 82 | 0 | 2.0 | 0.0 | 0.00 | 0.00 | 0.00 | 20 | 1019.0 |
| 20260901204503 | 82 | 0 | 2.0 | 0.0 | 0.00 | 0.00 | 0.00 | 20 | 1019.0 |
| 20260901203003 | 84 | 280 | 3.0 | 0.0 | 0.00 | 0.00 | 0.00 | 18 | 1018.0 |
| 20260901200004 | 90 | 270 | 6.0 | 0.0 | 0.00 | 0.00 | 0.00 | 17 | 1018.0 |
| 20260901194503 | 90 | 270 | 6.0 | 0.0 | 0.00 | 0.00 | 0.00 | 17 | 1018.0 |
| 20260901193003 | 90 | 280 | 6.0 | 0.0 | 0.00 | 0.00 | 0.00 | 17 | 1018.0 |
| 20260901191502 | 90 | 280 | 6.0 | 0.0 | 0.00 | 0.00 | 0.00 | 17 | 1018.0 |
| 20260901190004 | 91 | 270 | 7.0 | 0.0 | 0.00 | 0.00 | 0.00 | 16 | 1018.0 |
| 20260901184503 | 91 | 270 | 7.0 | 0.0 | 0.00 | 0.00 | 0.00 | 16 | 1018.0 |
| 20260901183003 | 93 | 250 | 8.0 | 0.0 | 0.00 | 0.00 | 0.00 | 16 | 1017.0 |
| 20260901174503 | 93 | 250 | 1.0 | 0.0 | 0.00 | 0.00 | 0.00 | 16 | 1017.0 |
| 20260901173003 | 93 | 250 | 7.0 | 0.0 | 0.00 | 0.00 | 0.00 | 16 | 1017.0 |
| 20260901171503 | 93 | 250 | 7.0 | 0.0 | 0.00 | 0.00 | 0.00 | 16 | 1017.0 |
| 20260901170003 | 93 | 220 | 9.0 | 0.0 | 0.00 | 0.00 | 0.00 | 16 | 1018.0 |
| 20260901164503 | 93 | 220 | 9.0 | 0.0 | 0.00 | 0.00 | 0.00 | 16 | 1018.0 |
| 20260901163004 | 93 | 250 | 13.0 | 0.0 | 0.00 | 0.00 | 0.00 | 16 | 1018.0 |
| 20260901161503 | 93 | 250 | 13.0 | 0.0 | 0.00 | 0.00 | 0.00 | 16 | 1018.0 |
| 20260901160003 | 93 | 210 | 9.0 | 0.0 | 0.00 | 0.00 | 0.00 | 17 | 1018.0 |
| 20260901154503 | 93 | 210 | 9.0 | 0.0 | 0.00 | 0.00 | 0.00 | 17 | 1018.0 |
| 20260901153004 | 91 | 200 | 7.0 | 0.0 | 0.00 | 0.00 | 0.00 | 21 | 1018.0 |
| 20260901151503 | 91 | 200 | 7.0 | 0.0 | 0.00 | 0.00 | 0.00 | 21 | 1018.0 |
| 20260901144503 | 91 | 190 | 9.0 | 0.0 | 0.00 | 0.00 | 0.00 | 21 | 1018.0 |
| 20260901141503 | 91 | 200 | 9.0 | 0.0 | 0.00 | 0.00 | 0.00 | 21 | 1019.0 |
| 20260901140004 | 90 | 200 | 7.0 | 0.0 | 0.00 | 0.00 | 0.00 | 27 | 1019.0 |
| 20260901134503 | 90 | 200 | 7.0 | 0.0 | 0.00 | 0.00 | 0.00 | 27 | 1019.0 |
| 20260901133004 | 90 | 200 | 7.0 | 0.0 | 0.00 | 0.00 | 0.00 | 27 | 1019.0 |
| 20260901131503 | 90 | 200 | 7.0 | 0.0 | 0.00 | 0.00 | 0.00 | 27 | 1019.0 |
| 20260901130003 | 88 | 210 | 6.0 | 0.0 | 0.00 | 0.00 | 0.00 | 31 | 1019.0 |
| 20260901124503 | 88 | 210 | 6.0 | 0.0 | 0.00 | 0.00 | 0.00 | 31 | 1019.0 |
| 20260901120004 | 84 | 0 | 6.0 | 0.0 | 0.00 | 0.00 | 0.00 | 39 | 1020.0 |
| 20260901114504 | 84 | 0 | 6.0 | 0.0 | 0.00 | 0.00 | 0.00 | 39 | 1020.0 |
| 20260901111503 | 81 | 140 | 5.0 | 0.0 | 0.00 | 0.00 | 0.00 | 44 | 1020.0 |
| 20260901104503 | 79 | 90 | 3.0 | 0.0 | 0.00 | 0.00 | 0.00 | 47 | 1021.0 |
| 20260901094503 | 77 | 140 | 3.0 | 0.0 | 0.00 | 0.00 | 0.00 | 53 | 1021.0 |
| 20260901093003 | 75 | 120 | 3.0 | 0.0 | 0.00 | 0.00 | 0.00 | 53 | 1020.0 |
| 20260901091503 | 75 | 120 | 3.0 | 0.0 | 0.00 | 0.00 | 0.00 | 53 | 1020.0 |
| 20260901090003 | 73 | 0 | 2.0 | 0.0 | 0.00 | 0.00 | 0.00 | 46 | 1020.0 |
| 20260901083003 | 70 | 0 | 2.0 | 0.0 | 0.00 | 0.00 | 0.00 | 46 | 1020.0 |
| 20260901080004 | 66 | 360 | 2.0 | 0.0 | 0.00 | 0.00 | 0.00 | 52 | 1020.0 |
| 20260901073003 | 64 | 0 | 2.0 | 0.0 | 0.00 | 0.00 | 0.00 | 52 | 1020.0 |
| 20260901061502 | 64 | 350 | 3.0 | 0.0 | 0.00 | 0.00 | 0.00 | 52 | 1020.0 |
| 20260901051504 | 66 | 350 | 5.0 | 0.0 | 0.00 | 0.00 | 0.00 | 48 | 1019.0 |
| 20260901050004 | 66 | 360 | 5.0 | 0.0 | 0.00 | 0.00 | 0.00 | 45 | 1019.0 |
| 20260901044505 | 66 | 360 | 5.0 | 0.0 | 0.00 | 0.00 | 0.00 | 45 | 1019.0 |
| 20260901041504 | 66 | 340 | 3.0 | 0.0 | 0.00 | 0.00 | 0.00 | 45 | 1019.0 |
| 20260901040004 | 66 | 340 | 3.0 | 0.0 | 0.00 | 0.00 | 0.00 | 45 | 1019.0 |
| 20260901034503 | 66 | 340 | 3.0 | 0.0 | 0.00 | 0.00 | 0.00 | 45 | 1019.0 |
| 20260901033003 | 68 | 320 | 6.0 | 0.0 | 0.00 | 0.00 | 0.00 | 40 | 1019.0 |
| 20260901030003 | 68 | 340 | 6.0 | 0.0 | 0.00 | 0.00 | 0.00 | 40 | 1019.0 |
| 20260901023002 | 68 | 0 | 2.0 | 0.0 | 0.00 | 0.00 | 0.00 | 40 | 1019.0 |
| 20260901014504 | 70 | 320 | 5.0 | 0.0 | 0.00 | 0.00 | 0.00 | 35 | 1019.0 |
| 20260901011503 | 70 | 30 | 3.0 | 0.0 | 0.00 | 0.00 | 0.00 | 37 | 1019.0 |
| 20260901010003 | 68 | 330 | 3.0 | 0.0 | 0.00 | 0.00 | 0.00 | 40 | 1019.0 |
| 20260901004503 | 68 | 330 | 3.0 | 0.0 | 0.00 | 0.00 | 0.00 | 40 | 1019.0 |
| 20260901001503 | 72 | 20 | 3.0 | 0.0 | 0.00 | 0.00 | 0.00 | 35 | 1019.0 |
| 20260901000003 | 72 | 360 | 5.0 | 0.0 | 0.00 | 0.00 | 0.00 | 37 | 1018.0 |
| 20260831233003 | 72 | 0 | 1.0 | 0.0 | 0.00 | 0.00 | 0.00 | 37 | 1018.0 |
| 20260831231502 | 72 | 0 | 1.0 | 0.0 | 0.00 | 0.00 | 0.00 | 37 | 1018.0 |
| 20260831230003 | 73 | 0 | 2.0 | 0.0 | 0.00 | 0.00 | 0.00 | 35 | 1018.0 |